Regional Weather Roundup
Issued by NWS Wilmington, NC

Home | Current Version | Previous Version | Text Only | Print | Product List | Glossary On
Versions: 1 2 3 4 5 6 7 8 9 10 11 12 13 14 15 16 17 18 19 20 21 22 23 24 25 26 27
000
ASUS42 KILM 260513
RWRILM
RWRILM
REGIONAL HOURLY WEATHER ROUNDUP
NATIONAL WEATHER SERVICE WILMINGTON NC
1200 AM EST SUN FEB 26 2017

NOTE: "FAIR" INDICATES FEW OR NO CLOUDS BELOW 12,000 FEET WITH NO
SIGNIFICANT WEATHER AND/OR OBSTRUCTIONS TO VISIBILITY.

...............WFO WILMINGTON COUNTY WARNING AREA...............

......COASTAL NC AND SC COUNTIES......

CITY           SKY/WX    TMP DP  RH WIND       PRES   REMARKS
WILMINGTON     CLEAR     62  25  24 W13       29.84R
N MYRTLE BEACH CLEAR     61  23  23 W10       29.87R
MYRTLE BEACH   NOT AVBL

......INLAND NC AND SC COUNTIES.......

CITY           SKY/WX    TMP DP  RH WIND       PRES   REMARKS
LUMBERTON      CLEAR     58  20  22 NW15      29.88R
ELIZABETHTOWN  CLEAR     60  21  22 NW13      29.87R
WHITEVILLE     CLEAR     61  22  23 W6        29.86R
FLORENCE       CLEAR     58  20  22 W14G21    29.90R
DARLINGTON     CLEAR     55  23  28 NW10      29.92R
KINGSTREE      FAIR      54  19  26 W8        29.92R
HARTSVILLE     FAIR      52  23  32 W3        29.92R
BENNETTSVILLE  NOT AVBL
CONWAY         FAIR      59  23  25 CALM      29.89R
GEORGETOWN     FAIR      59  21  23 W10       29.91R
MARION         FAIR      57  23  26 W9G16     29.89R

....................REST OF NORTH CAROLINA......................

.........EASTERN NC.........

CITY           SKY/WX    TMP DP  RH WIND       PRES   REMARKS
CAPE HATTERAS  CLEAR     63  48  58 VRB6      29.78R
JACKSONVILLE   CLEAR     60  22  23 VRB3      29.84R
MOREHEAD CITY  CLEAR     63  48  58 N13       29.81R
KENANSVILLE    CLEAR     57  21  24 NW6       29.84R
NEW BERN       CLEAR     60  35  39 N9        29.83R
ELIZABETH CITY CLOUDY    59  32  36 NW15      29.80R

.........CENTRAL NC.........

CITY           SKY/WX    TMP DP  RH WIND       PRES   REMARKS
RALEIGH DURHAM CLEAR     52  20  28 NW10G22   29.89R
ROCKY MOUNT    CLEAR     54  25  32 NW8       29.85R
ROANOKE RAPIDS NOT AVBL
FAYETTEVILLE     N/A    N/A N/A N/A MISG      29.87R
HOFFMAN        CLEAR     53  24  32 NW8       29.90R

.........WESTERN NC.........

CITY           SKY/WX    TMP DP  RH WIND       PRES   REMARKS
CHARLOTTE      CLEAR     46  19  34 NW8       29.96R
GREENSBORO     CLEAR     43  16  33 NW14      29.93R
HICKORY        NOT AVBL
BOONE          NOT AVBL
ASHEVILLE      NOT AVBL

.....................REST OF SOUTH CAROLINA.....................

.........EASTERN SC.........

CITY           SKY/WX    TMP DP  RH WIND       PRES   REMARKS
CHARLESTON     CLEAR     60  20  21 NW15G23   29.93R
BEAUFORT MCAS  CLEAR     60  26  27 NW10      29.96R
HILTON HEAD    CLEAR     61  27  27 NW8G15    29.97R

.........CENTRAL SC.........

CITY           SKY/WX    TMP DP  RH WIND       PRES   REMARKS
COLUMBIA       CLEAR     53  21  28 W10       29.96R
ORANGEBURG     CLEAR     56  19  23 NW8G18    29.96R
SUMTER SHAW    CLEAR     56  18  23 W10       29.91R

.........WESTERN SC.........

CITY           SKY/WX    TMP DP  RH WIND       PRES   REMARKS
GREENVILLE     NOT AVBL
ROCK HILL      CLEAR     47  21  35 N9        29.96R
ANDERSON       CLEAR     45  23  42 W8        30.00R
CLEMSON        NOT AVBL
GREENWOOD      CLEAR     48  20  32 W7        30.01R


...................COASTAL AND OFFSHORE REPORTS..................

................LOCAL PIERS AND NC RESERVE................


STATION/POSITION TIME  SKY/WX   TEMP    WIND        PRES    VSBY
                                AIR SEA DIR/SP/G
                 (UTC)          (F)     (DEG/KT/KT) (MB)    (MI)
JOHNY MRCER PIER 0448            64 60  280/ 11/ 18 1008.8R
NC RESRV MASNBRO 0345            65     290/  4     1008.0
OCEAN CREST PIER NOT AVBL
SPRINGMAID  PIER 0448                               1011.2R


................COASTAL AND OFFSHORE BUOYS................


STATION/POSITION TIME  SKY/WX   TEMP    WIND        PRES    VSBY
                                AIR SEA DIR/SP/G
                 (UTC)          (F)     (DEG/KT/KT) (MB)    (MI)
DIMNDSHOAL 41025 0450            66 74  330/ 23/ 27 1007.5R
WVE H/P(F/S)=  9/ 7 SWL H/P/D(F/S/D)=  3/290/17

CAPE LOOKOUT     0500            65     330/ 20/ 24 1008.8R
ONSLOW BAY 41036 NOT AVBL
ONSLOW BAY 41064 0408            64     270/ 17/ 23 1009.0R
ONSLOW BAY 41159 0443               65                N/A
WVE H/P(F/S)=  7/11 SWL H/P/D(F/S/D)=  2/120/11

MASNBO INL 41110 0429               58                N/A
WVE H/P(F/S)=  4/10 SWL H/P/D(F/S/D)=  2/130/11

WILM HARBR 41108 0447               58                N/A
WVE H/P(F/S)=  5/ 6 SWL H/P/D(F/S/D)=  2/150/11

27SE WRITB 41037 0408            63 62  290/ 16/ 21 1008.8R
FRYING PAN 41013 0450            68 69  280/ 21/ 27 1010.8R
WVE H/P(F/S)=  7/ 6 SWL H/P/D(F/S/D)=  3/130/10

SUNST NRSH 41024 0408            64 60  300/ 12/ 16 1010.5R
CAPRS NRSH 41029 0408            65 61  310/ 19/ 25 1012.1R
EDISTO     41004 0450            67 69  310/ 21/ 25 1011.8R
WVE H/P(F/S)=  5/ 9 SWL H/P/D(F/S/D)=  3/110/ 9



..........OFFSHORE BUOYS BEYOND 100 NM OFFSHORE...........
.....IN A TRIANGLE---HAT TO BERMUDA TO BAHAMAS TO HAT.....


STATION/POSITION TIME  SKY/WX   TEMP    WIND        PRES    VSBY
                                AIR SEA DIR/SP/G
                 (UTC)          (F)     (DEG/KT/KT) (MB)    (MI)
150E HAT   41001 NOT AVBL
W BERMUDA  41048 0450            70 70  220/ 14/ 16 1012.6R
WVE H/P(F/S)=  7/ 9 SWL H/P/D(F/S/D)=  7/110/ 9

ATLANTIC S 41049 0450            73 73  160/  8/  8 1019.3R
WVE H/P(F/S)=  6/ 8 SWL H/P/D(F/S/D)=  5/100/ 8

E BAHAMAS  41046 0450            77 78  120/  6/  8 1016.5S
WVE H/P(F/S)=  4/12 SWL H/P/D(F/S/D)=  3/12

NE BAHAMAS 41047 0450            73 74  240/  8/ 10 1015.8F
WVE H/P(F/S)=  6/11 SWL H/P/D(F/S/D)=  5/ 60/11

120E CANVRL41010 NOT AVBL

END




USA.gov is the U.S. government's official web portal to all federal, state and local government web resources and services.